Regional Weather Roundup
Issued by NWS Jackson, KY

Home | Current Version | Previous Version | Graphics & Text | Print | Product List | Glossary On
Versions: 1 2 3 4 5 6 7 8 9 10 11 12 13 14 15 16 17 18 19 20 21 22 23 24 25 26 27
000
ASUS43 KJKL 191910
RWRJKL

EAST KENTUCKY HOURLY WEATHER ROUNDUP
NATIONAL WEATHER SERVICE JACKSON KY
300 PM EDT SAT MAY 19 2018

NOTE: "FAIR" INDICATES FEW OR NO CLOUDS BELOW 12,000 FEET WITH
NO SIGNIFICANT WEATHER AND/OR OBSTRUCTIONS TO VISIBILITY.

* THESE REPORTS ARE NOT UNDER NWS QUALITY CONTROL AND MAY NOT
  REPORT WEATHER SUCH AS PRECIPITATION AND FOG.

KYZ079-080-083-085-087-088-110-112-115-119-120-192000
...EASTERN KENTUCKY...

CITY           SKY/WX    TMP DP  RH WIND       PRES   REMARKS
JACKSON          N/A     77  65  66 VRB3      29.99S
LONDON           N/A     77  69  76 SW8       29.99F
SOMERSET*      PTSUNNY   77  63  61 W13G18    29.99S
MONTICELLO*    PTSUNNY   83  68  60 SW15G25   29.99F
MIDDLESBORO*   PTSUNNY   81  66  59 S7        30.00F
HARLAN APT*    MOCLDY    78  64  61 S5        30.02F
PIKE CO APT*   PTSUNNY   78  64  61 SW5       30.00F
BIG SANDY APT* LGT RAIN  72  69  90 CALM      29.99F
MOREHEAD APT*    N/A     75  66  73 SW10      29.98R
ASHLAND*       CLOUDY    77  69  76 S9        29.94F
$$

KYZ035-036-041-042-044-050-067-078-099-192000
...CENTRAL KENTUCKY...

CITY           SKY/WX    TMP DP  RH WIND       PRES   REMARKS
DANVILLE*        N/A     77  70  78 SW13      29.98F
LEXINGTON      LGT RAIN  69  65  86 SW9       29.97S
FRANKFORT        N/A     79  66  64 SW15G24   29.93F
LOUISVILLE     PTSUNNY   78  68  71 W8        29.94S
LEBANON*       MOCLDY    75  66  73 W9        29.97S
GLASGOW*       PTSUNNY   82  66  58 W13G20    29.96S
BOWLING GREEN    N/A     85  70  60 W12G24    29.95F
$$

KYZ091>093-OHZ055-061-077-WVZ005-015-034-035-042-192000
...SOUTHERN OHIO/WEST VIRGINIA...

CITY           SKY/WX    TMP DP  RH WIND       PRES   REMARKS
COVINGTON      PTSUNNY   78  65  63 SW13      29.92S
COLUMBUS       PTSUNNY   78  64  61 SW17      29.89F
DAYTON         LGT RAIN  73  70  90 SW13      29.91S
WILMINGTON     PTSUNNY   76  68  76 SW17      29.91S
HUNTINGTON     PTSUNNY   80  66  62 SW10      29.95F
CHARLESTON     PTSUNNY   82  63  52 SW12G25   29.96F
PINEVILLE*       N/A     82  61  49 MISG      30.06F
BECKLEY        PTSUNNY   73  61  65 SE9       30.06F
BLUEFIELD      PTSUNNY   72  63  73 S7        30.10F
$$

VAZ002-007-008-TNZ017-027-036-066-071-192000
...SOUTHWEST VIRGINIA/EAST TENNESSEE...

CITY           SKY/WX    TMP DP  RH WIND       PRES   REMARKS
WISE*          LGT RAIN  70  63  78 S7        30.09F
JONESVILLE*    LGT RAIN  77  68  73 S12       30.05F
ABINGDON*        N/A     80  67  66 W8        30.06F
BRISTOL        PTSUNNY   79  66  64 S6        30.02F
MORRISTOWN*    PTCLDY    81  66  61 W12G17    30.02F
SEVIERVILLE*   PTCLDY    84  68  58 VRB6      30.00F
KNOXVILLE      PTSUNNY   84  66  54 SW16      30.00F
LAFOLLETTE*    MOCLDY    82  64  54 VRB5      30.04F
OAK RIDGE        N/A     83  67  58 VRB6      30.01F
CROSSVILLE       N/A     79  62  56 W14       30.05F
NASHVILLE      PTSUNNY   87  65  47 W10G17    29.98F
$$

...KEY TO REMARKS...
VSB - VISIBILITY IN MILES
WCI - WIND CHILL INDEX
HX  - HEAT INDEX

$$




USA.gov is the U.S. government's official web portal to all federal, state and local government web resources and services.